Back to catalog

HULIANWANG DIGUI-114

AliveCommunicationsPO
NORAD 66953·PAYLOAD·🇨🇳 China

Launched Dec 8, 2025 from Taiyuan Satellite Launch Center

Loading…

Next Passes (next 24 hours)

TLE

FreshSource: Space-Track

Epoch: Sep 14, 2026, 10:33 UTC

1 66953U 25287A   26257.43981459  .00000008  00000-0 -15788-4 0  9990
2 66953  86.4882 252.1918 0001644  83.6660 276.4661 13.24405667 37155

Track HULIANWANG DIGUI-114 in real time with AllMySat

Download on the App Store